#timestamp,LO_Frequency,Hit,StdDev 
1574359215.0,286047001.2,N
1574359215.9,286047001.2,N
1574359235.8,286047000.2,N
1574359255.6,286047001.0,N
1574359275.5,286047001.2,N
1574359295.3,286047001.1,N
1574359315.1,286047000.7,N
1574359335.9,286047001.1,N
1574359355.7,286047001.1,N
1574359375.5,286047000.7,N
1574359395.4,286046998.9,N
1574359415.2,286046998.8,N
1574359435.1,286046998.8,N
1574359436.0,286046998.8,N
1574359455.8,286046999.1,N
1574359475.6,286046998.4,N
1574359495.5,286046998.2,N
1574359515.3,286046998.2,N
1574359535.1,286047001.2,N
1574359555.9,286046998.5,N
1574359605.8,286046998.3,E
1574359615.7,286047001.0,N
1574359635.5,286046999.9,P
1574359655.3,286046998.4,N
1574359675.2,286047000.7,N
1574359695.0,286046998.6,N
1574359695.9,286046998.6,N
1574359715.8,286046998.6,N
1574359735.6,286047000.7,N
1574359755.4,286047000.4,N
1574359775.3,286046999.8,N
1574359795.1,286047000.3,N
1574359815.8,286046999.9,N
1574359835.7,286046999.7,N
1574359855.5,286047000.3,N
1574359875.4,286047000.5,N
1574359895.2,286047000.3,N
1574359915.0,286046998.3,N
1574359915.9,286046998.3,N
1574359935.8,286046998.6,N
1574359955.6,286046998.9,N
1574359975.4,286046999.3,N
1574359995.3,286046999.2,N
1574360015.1,286046998.7,N
1574360035.9,286047000.5,N
1574360055.7,286046999.8,N
1574360075.5,286046999.7,N
1574360095.4,286047000.3,N
1574360115.2,286047000.2,N
1574360135.0,286047001.9,N
1574360135.9,286047001.9,N
1574360155.8,286047002.8,N
1574360175.6,286047002.3,N
1574360195.5,286047002.1,N
1574360215.3,286047002.2,N
1574360235.1,286047002.4,N
1574360255.9,286047001.9,N
1574360275.7,286047002.6,N
1574360295.5,286047000.6,N
1574360315.4,286047001.1,N
1574360335.2,286047000.9,N
1574360355.1,286047000.3,N
1574360356.0,286047000.3,N
1574360375.8,286047001.2,N
1574360395.6,286047001.0,N
1574360415.5,286047000.5,N
1574360435.3,286047000.0,N
1574360455.1,286047000.3,N
1574360475.9,286047002.5,N
1574360495.7,286047000.0,N
1574360515.6,286047002.3,N
1574360535.4,286047000.3,N
1574360555.2,286046998.3,N
1574360575.1,286046998.5,N
1574360576.0,286046998.5,N
1574360595.8,286047000.1,N
1574360615.6,286047000.5,N
1574360635.5,286047001.2,N
1574360655.3,286047002.2,N
1574360675.2,286047001.9,N
1574360695.9,286047004.4,Y
1574360715.7,286047004.4,P
1574360735.6,286047003.4,N
1574360755.4,286047004.7,P
1574360775.3,286047005.8,Y
1574360795.1,286047001.6,P
1574360796.0,286047001.6,N
1574360815.8,286047001.3,N
1574360835.7,286047001.9,N
1574360855.5,286047001.6,N
1574360875.3,286047001.8,N
1574360895.2,286047004.4,Y
1574360915.0,286046998.1,P
1574360915.9,286046998.1,N
1574360935.8,286046998.6,N
1574360955.6,286046999.5,N
1574360975.4,286046998.2,N
1574360995.3,286047000.8,N
1574361015.1,286046998.8,N
1574361035.8,286046999.6,N
1574361055.7,286046997.7,N
1574361075.5,286046996.1,Y
1574361095.4,286046997.3,P
1574361115.2,286046996.9,P
1574361135.0,286046996.7,P
1574361135.9,286046996.7,Y
1574361155.8,286047000.5,P
1574361175.6,286046999.7,N
1574361195.5,286047002.7,N
1574361215.3,286046999.8,N
1574361235.1,286047002.8,N
1574361255.9,286047001.4,N
1574361275.7,286047004.2,N
1574361295.5,286047003.5,N
1574361315.4,286047001.8,N
1574361335.2,286047002.4,N
1574361355.0,286047000.2,N
1574361356.0,286047000.2,N
1574361375.8,286047000.4,N
1574361395.6,286047002.3,N
1574361415.5,286047002.4,N
1574361435.3,286046999.3,N
1574361455.1,286046999.3,N
1574361475.9,286046997.0,N
1574361495.7,286046999.0,N
1574361515.5,286046999.6,N
1574361535.4,286046999.4,N
1574361555.2,286046998.9,N
1574361575.1,286047000.8,N
1574361576.0,286047000.8,N
1574361595.8,286047002.3,N
1574361615.6,286047001.4,N
1574361635.5,286047003.4,N
1574361655.3,286047006.0,Y
1574361675.2,286047003.9,P
1574361695.9,286047003.5,N
1574361715.7,286047001.6,N
1574361735.6,286047002.2,N
1574361755.4,286046999.7,N
1574361775.2,286046999.8,N
1574361795.1,286047000.9,N
1574361796.0,286047000.9,N
1574361815.8,286046998.2,N
1574361835.7,286046997.2,N
1574361855.5,286046998.9,N
1574361875.3,286046996.6,N
1574361895.2,286046998.5,N
1574361915.9,286046998.2,N
1574361935.7,286047000.8,N
1574361955.6,286047000.9,N
1574361975.4,286047000.2,N
1574361995.3,286047002.7,N
1574362015.1,286047001.5,N
1574362016.0,286047001.5,N
1574362035.8,286047001.8,N
1574362055.7,286047004.0,N
1574362075.5,286046999.8,N
1574362095.3,286046998.3,N
1574362115.2,286047000.4,N
1574362135.0,286046998.2,N
1574362135.9,286046998.2,N
1574362155.8,286046998.3,N
1574362175.6,286047001.1,N
1574362195.4,286046999.8,N
1574362215.3,286047000.9,N
1574362235.1,286046999.9,N
1574362255.8,286047002.7,N
1574362275.7,286047000.1,N
1574362295.5,286046998.8,N
1574362315.4,286046998.7,N
1574362335.2,286047000.4,N
1574362355.0,286047000.3,N
1574362355.9,286047000.3,N
1574362375.8,286046998.1,N
1574362395.6,286047000.8,N
1574362415.4,286047000.5,N
1574362435.3,286046998.4,N
1574362455.1,286047001.0,N
1574362475.9,286046999.9,N
1574362495.7,286047002.7,N
1574362515.5,286047002.6,N
1574362535.4,286047002.0,N
1574362555.2,286047002.6,N
1574362575.0,286047001.3,N
1574362575.9,286047001.3,N
1574362595.8,286047004.3,N
1574362615.6,286047003.9,N
1574362635.5,286047003.4,N
1574362655.3,286047004.2,N
1574362675.1,286047005.2,N
1574362695.9,286047005.4,N
1574362715.7,286047005.5,N
1574362735.5,286047003.6,N
1574362755.4,286047005.5,N
1574362775.2,286047002.9,N
1574362795.1,286047003.2,N
1574362796.0,286047003.2,N
